Location: Hermaringen
(48.5952°N, 10.2585°E)
Time: 23:49:59
(UTC+00:00)

Cosmos 2278 Rocket - Pass Details

Date: 18 November 2025
Orbit: 841 x 843 km, 71.0° (Epoch: 05 December)

Event Time Altitude Azimuth Distance (km) Brightness Sun altitude
Rises 17:35:45 0° 219° (SW) 3,387 6.1 -19.6°
Reaches altitude 10° 17:38:14 10° 224° (SW) 2,456 5.3 -20.0°
Maximum altitude 17:43:47 57° 303° (WNW) 984 2.7 -20.9°
Enters shadow 17:48:31 15° 20° (NNE) 2,163 4.1 -21.7°
